{"data":{"norad_id":67712,"intl_designator":"2026-025V","name":"STARLINK-36705","alt_names":[],"object_type":"PAYLOAD","status":"ACTIVE","operator":null,"country":"US","launch_date":"2026-02-07","launch_site_code":"AFWTR","launch_vehicle":null,"mission":null,"orbit_class":"UNKNOWN","rcs_meters":null,"size_class":null,"mass_kg":null,"dimensions":null,"purposes":["comms"],"wikipedia_slug":null,"has_3d_model":false,"image_url":null,"decayed_at":null,"tle_current":{"epoch":"2026-09-19T14:03:29.047968Z","epoch_age_seconds":145462,"freshness":"FRESH","line1":"1 67712U 26025V   26262.58575287  .00016322  00000+0  50673-3 0  9990","line2":"2 67712  97.2842  12.4681 0001052  83.3203 276.8160 15.33450747 35722","mean_motion":15.33450747,"eccentricity":0.0001052,"inclination_deg":97.2842,"raan_deg":12.4681,"arg_perigee_deg":83.3203,"mean_anomaly_deg":276.816,"bstar":0.00050673,"rev_number":3572,"period_min":93.905852719246,"perigee_km":464.80612214735,"apogee_km":466.24602885843,"semimajor_km":6843.6630755029,"source":"CELESTRAK","updated_at":"2026-09-20T09:00:43.655015Z"}}}